Location: Newark
(34.6283°N, 36.0776°E)
Time: 07:05:49
(UTC+00:00)

S-56A Canister/Altair - Pass Details

Date: 25 October 2019
Orbit: 634 x 2498 km, 38.9° (Epoch: 17 November)

Event Time Altitude Azimuth Distance (km) Brightness Sun altitude
Rises 20:53:06 0° 217° (SW) 2,910 - -66.8°
Reaches altitude 10° 20:55:32 10° 205° (SSW) 2,008 - -66.9°
Maximum altitude 20:59:25 29° 144° (SE) 1,220 - -67.1°
Drops below altitude 10° 21:03:55 10° 84° (E) 2,347 - -67.3°
Sets 21:06:59 0° 74° (ENE) 3,504 - -67.4°
